星链-3782 (STARLINK-3782 )

导读

STARLINK-3782是美国太空探索技术公司(SpaceX)星链(Starlink)卫星互联网项目的卫星,于2022年4月21日发射升空,属于星链低轨卫星星座的组成部分,承担全球网络覆盖任务,通过星间链路等技术为地面提供高速互联网服务,目前已在轨运行多年,服务全球多地用户。

基本信息
目录编号:
52273
目录名称:
STARLINK-3782
国际标识:
2022-041N
轨道中心:
EARTH
卫星名称:
星链-3782
卫星全名:
星链-3782 (STARLINK-3782 )
卫星状态:
在轨 (已飞行1597 天)
发射日期:
2022-04-21 UTC
国别 :
美国 (US)
星等 :
--
轨道信息
数据来源 国际轨道数据
星历时间: 2026-09-01T21:17:20+0800
2天前
查看轨道信息
半长轴: 6847.513km
偏心率: 0.0003404
轨道倾角: 53.161°
近地点辐角 48.129°
升交点赤经 19.999°
平近点角 312.000°
近地点: 467.045km
远地点: 471.707km
周期: 93.985分钟
每日圈数: 15.32158
详细信息
固有亮度:
5
最大亮度:
2.5
卫星平台:
Starlink v1.5
覆盖范围:
全球
运营商:
太空探索技术公司
运营商所在国:
美国
制造商(研发单位):
太空探索技术公司
制造商所在国:
美国
使用方式:
暂无
卫星简介
星链(Starlink)计划是由太空探索技术公司(SpaceX)提出的一个巨型低轨卫星互联网星座项目,计划在2019年至2024年间在太空搭建由约1.2万颗卫星组成的“星链”网络,其中1584颗将部署在地球上空550千米处的近地轨道,并从2020年开始工作。该卫星仍在工作。
2D轨道图
3D轨道图
轨道高度分析图
轨道倾角分析图
轨道综合分析图
查看轨道综合分析图
交会数据列表
事件ID 空间交会对象 最接近时刻(TCA) 交会距离 交会风险概率(CRP) 交会风险指数(CRI) 操作
CDM_260903-060605-227306-812122
2026-09-03T
06:06:08+0000
0.682 km
远距离
9.177987E-5 中风险 0.74
CDM_260828-224105-227306-942021
2026-08-28T
22:41:11+0000
0.620 km
远距离
8.9408E-5 中风险 0.74
CDM_260904-230605-227306-519721
2026-09-04T
23:06:46+0000
0.733 km
远距离
6.748284E-5 中风险 0.72
CDM_260905-023205-227306-625321
2026-09-05T
02:32:49+0000
1.200 km
极远距离
1.251012E-5 中风险 0.57
CDM_260903-182505-227306-788822
2026-09-03T
18:25:16+0000
1.311 km
极远距离
1.051689E-5 中风险 0.55
CDM_260904-073005-227306-772621
2026-09-04T
07:30:36+0000
1.501 km
极远距离
4.957093E-6 低风险 0.49
CDM_260904-064305-227306-772621
2026-09-04T
06:43:39+0000
1.612 km
极远距离
3.960546E-6 低风险 0.47
CDM_260903-032005-227306-757322
2026-09-03T
03:20:08+0000
1.648 km
极远距离
3.70068E-6 低风险 0.46
CDM_260904-173705-227306-519721
2026-09-04T
17:37:53+0000
1.755 km
极远距离
3.699554E-6 低风险 0.46
CDM_260903-045405-227306-757321
2026-09-03T
04:54:08+0000
1.655 km
极远距离
3.644552E-6 低风险 0.46